Location: Morosaglia
(42.4360°N, 9.3069°E)
Time: 10:52:51
(UTC+00:00)

NOSS 3-1 (C) - Pass Details

Date: 07 June 2020
Orbit: 752 x 1456 km, 63.4° (Epoch: 15 June)

Event Time Altitude Azimuth Distance (km) Brightness Sun altitude
Rises 01:08:45 0° 323° (NW) 3,987 7.1 -20.3°
Reaches altitude 10° 01:11:18 10° 323° (NW) 3,117 6.5 -20.0°
Maximum altitude 01:19:00 86° 236° (SW) 1,331 4.1 -19.4°
Drops below altitude 10° 01:27:45 10° 149° (SSE) 3,522 6.1 -18.6°
Sets 01:30:47 0° 149° (SSE) 4,528 6.7 -18.3°
